Starlink 31844

operational
NORAD ID: 60583 Int'l Des: 2024-150 Owner: SPXS Country: US Constellation: starlink
LEOCIRCULAR

关于 Starlink 31844

正在加载描述...

实时位置

正在加载3D地球...

即将过境

高度历史

Altitude vs Time

uPlot chart will show altitude changes over time

两行轨道根数

1 60583U 24150A 25354.05788057 .00000086 00000-0 15042-4 0 9993
2 60583 53.1620 316.6082 0001511 115.0194 245.0963 15.30196039 75857
Epoch: Dec 20, 2025 • Age: 26 hours

当前状态

高度 476.2 km
速度 7.63 km/s
星下点 -3.57°S, 4.77°W
发射日期 Aug 20, 2024
运行时间 1.3 years
类型 internet

技术详情

分类 Payload
质量 730.00 kg
干质量 700.00 kg
总质量 730.00 kg
长度 0.30 m
直径 4.10 m
跨度 29.00 m
形状 Box + pan
制造商 SPXS
平台类型 Starlink V2M
阶段状态 In Orbit
所有者/国家 SPXS/US

大型星座

Loading constellations...